Location: Eaton Estates
(41.3089°N, 82.0057°W)
Time: 13:10:16
(UTC+00:00)

SPOT 3 Rocket - Pass Details

Date: 17 June 2021
Orbit: 779 x 794 km, 98.7° (Epoch: 26 July)

Event Time Altitude Azimuth Distance (km) Brightness Sun altitude
Exits shadow 02:33:58 11° 180° (S) 2,273 5.5 -13.7°
Maximum altitude 02:38:52 57° 259° (W) 917 4.0 -14.3°
Drops below altitude 10° 02:43:59 10° 338° (NNW) 2,356 7.3 -14.9°
Sets 02:46:22 0° 343° (NNW) 3,291 8.1 -15.1°
